DLR82 EGLL-KJFK

Flight info

Callsign DLR82
Flight time N/A
Altitude 34000
Route CPT L9 BIBPE DCT BUCGO DCT FELCA DCT NICXI DCT BAKUR DCT NEBIN/M081F340 DCT 5330N02000W 5230N03000W 51N040W 4930N05000W DCT IBERG/N0467F340 N364A TUSKY DCT PLYMM PARCH4
Aircraft CONC/M-SDE2E3FGHIRWXY/LB1

Departure

Time 2026-05-07 03:56
Airport London Heathrow Airport (EGLL)

Arrival

Time N/A
Airport John F. Kennedy International Airport (KJFK)
Time Latitude Longitude Altitude Speed Heading
2026-05-07 03:46 51.46849 -0.45576 86 ft 0 kts 360°
2026-05-07 03:51 51.46839 -0.45575 87 ft 2 kts
2026-05-07 03:51 51.46822 -0.45576 86 ft 2 kts
2026-05-07 03:51 51.46806 -0.45578 86 ft 2 kts
2026-05-07 03:51 51.46789 -0.45581 90 ft 2 kts
2026-05-07 03:52 51.46773 -0.45586 89 ft 2 kts 17°
2026-05-07 03:52 51.46758 -0.45596 87 ft 2 kts 37°
2026-05-07 03:52 51.46748 -0.45616 90 ft 2 kts 79°
2026-05-07 03:52 51.46747 -0.45624 86 ft 0 kts 85°
2026-05-07 03:53 51.46748 -0.45585 88 ft 10 kts 88°
2026-05-07 03:53 51.46750 -0.45412 86 ft 21 kts 90°
2026-05-07 03:53 51.46751 -0.45118 86 ft 31 kts 89°
2026-05-07 03:54 51.46752 -0.44719 86 ft 40 kts 90°
2026-05-07 03:54 51.46754 -0.44263 86 ft 40 kts 90°
2026-05-07 03:54 51.46770 -0.43850 86 ft 36 kts 91°
2026-05-07 03:54 51.46758 -0.43488 89 ft 28 kts 130°
2026-05-07 03:55 51.46574 -0.43438 87 ft 27 kts 182°
2026-05-07 03:55 51.46497 -0.43500 88 ft 11 kts 263°
2026-05-07 03:55 51.46495 -0.43629 85 ft 15 kts 270°
2026-05-07 03:55 51.46493 -0.44143 85 ft 80 kts 270°
2026-05-07 03:56 51.46491 -0.45375 86 ft 138 kts 269°
2026-05-07 03:56 51.46518 -0.47185 99 ft 184 kts 275°
2026-05-07 03:56 51.46586 -0.49274 599 ft 189 kts 270°
2026-05-07 03:56 51.46586 -0.51482 1065 ft 206 kts 269°
2026-05-07 03:57 51.46554 -0.53872 1435 ft 229 kts 268°
2026-05-07 03:57 51.46502 -0.56552 1777 ft 251 kts 268°
2026-05-07 03:57 51.46442 -0.59486 1957 ft 275 kts 268°
2026-05-07 03:57 51.46331 -0.62672 2112 ft 297 kts 261°
2026-05-07 03:58 51.45899 -0.66019 2325 ft 316 kts 259°
2026-05-07 03:58 51.45618 -0.69629 2519 ft 336 kts 265°
2026-05-07 03:58 51.45450 -0.73444 2928 ft 347 kts 266°
2026-05-07 03:58 51.45325 -0.77327 3542 ft 350 kts 269°
2026-05-07 03:59 51.45299 -0.81237 4260 ft 351 kts 270°
2026-05-07 03:59 51.45285 -0.85115 4725 ft 352 kts 269°
2026-05-07 03:59 51.45316 -0.89121 4971 ft 371 kts 268°
2026-05-07 03:59 51.45747 -0.93391 5029 ft 398 kts 279°
2026-05-07 04:00 51.46339 -0.97838 5225 ft 417 kts 279°
2026-05-07 04:00 51.46938 -1.02494 5394 ft 435 kts 278°
2026-05-07 04:00 51.47529 -1.07381 5423 ft 459 kts 274°
2026-05-07 04:00 51.48120 -1.12552 5541 ft 480 kts 274°
2026-05-07 04:01 51.48786 -1.17918 5691 ft 503 kts 284°
2026-05-07 04:01 51.50224 -1.23120 5807 ft 516 kts 309°
2026-05-07 04:01 51.52515 -1.27389 6300 ft 491 kts 333°
2026-05-07 04:01 51.55044 -1.30921 7086 ft 485 kts 317°
2026-05-07 04:02 51.57517 -1.34503 7990 ft 473 kts 315°
2026-05-07 04:02 51.59911 -1.38113 8634 ft 472 kts 311°
2026-05-07 04:02 51.61900 -1.42225 9079 ft 457 kts 285°
2026-05-07 04:02 51.63352 -1.46815 9322 ft 468 kts 296°
2026-05-07 04:03 51.64836 -1.51567 9594 ft 480 kts 297°
2026-05-07 04:03 51.66376 -1.56372 10099 ft 484 kts 298°
2026-05-07 04:03 51.67951 -1.61176 10630 ft 485 kts 298°
2026-05-07 04:03 51.69530 -1.65989 11183 ft 486 kts 296°
2026-05-07 04:04 51.70853 -1.71020 11739 ft 491 kts 290°
2026-05-07 04:04 51.71745 -1.76264 12342 ft 491 kts 284°
2026-05-07 04:04 51.72548 -1.81633 12853 ft 493 kts 283°
2026-05-07 04:04 51.73322 -1.87041 13307 ft 496 kts 283°
2026-05-07 04:05 51.74098 -1.92484 13773 ft 499 kts 283°
2026-05-07 04:05 51.74891 -1.97990 14049 ft 510 kts 283°
2026-05-07 04:05 51.75718 -2.03640 14172 ft 524 kts 283°
2026-05-07 04:05 51.76578 -2.09450 14308 ft 539 kts 284°
2026-05-07 04:06 51.77467 -2.15419 14428 ft 553 kts 284°
2026-05-07 04:06 51.78379 -2.21532 14545 ft 565 kts 284°
2026-05-07 04:06 51.79308 -2.27772 14661 ft 577 kts 284°
2026-05-07 04:06 51.80249 -2.34139 14810 ft 588 kts 283°
2026-05-07 04:07 51.81197 -2.40589 15150 ft 592 kts 283°
2026-05-07 04:07 51.82145 -2.47070 15626 ft 593 kts 283°
2026-05-07 04:07 51.83079 -2.53487 16015 ft 596 kts 283°
2026-05-07 04:07 51.84028 -2.60017 16370 ft 599 kts 284°
2026-05-07 04:08 51.84982 -2.66600 16698 ft 602 kts 283°
2026-05-07 04:08 51.85932 -2.73183 17172 ft 602 kts 283°
2026-05-07 04:08 51.86879 -2.79806 17554 ft 603 kts 283°
2026-05-07 04:08 51.87821 -2.86431 18031 ft 603 kts 283°
2026-05-07 04:09 51.88762 -2.93080 18263 ft 609 kts 283°
2026-05-07 04:09 51.89708 -2.99785 18585 ft 612 kts 283°
2026-05-07 04:09 51.90655 -3.06524 18931 ft 614 kts 283°
2026-05-07 04:09 51.91600 -3.13268 19368 ft 614 kts 282°
2026-05-07 04:10 51.92535 -3.19952 19668 ft 616 kts 282°
2026-05-07 04:10 51.93475 -3.26720 20106 ft 615 kts 282°
2026-05-07 04:10 51.94412 -3.33509 20317 ft 623 kts 282°
2026-05-07 04:10 51.95373 -3.40496 20116 ft 643 kts 282°
2026-05-07 04:11 51.96351 -3.47645 20284 ft 653 kts 282°
2026-05-07 04:11 51.97339 -3.54888 20406 ft 663 kts 282°
2026-05-07 04:11 51.98335 -3.62222 20721 ft 665 kts 282°
2026-05-07 04:11 51.99327 -3.69564 21123 ft 667 kts 282°
2026-05-07 04:12 52.00313 -3.76913 21587 ft 666 kts 282°
2026-05-07 04:12 52.01293 -3.84264 22069 ft 665 kts 281°
2026-05-07 04:12 52.02254 -3.91524 22487 ft 666 kts 281°
2026-05-07 04:12 52.03225 -3.98894 22900 ft 667 kts 281°
2026-05-07 04:13 52.04195 -4.06280 23294 ft 669 kts 281°
2026-05-07 04:13 52.05165 -4.13702 23630 ft 673 kts 281°
2026-05-07 04:13 52.06139 -4.21187 23866 ft 677 kts 281°
2026-05-07 04:13 52.07110 -4.28677 24234 ft 679 kts 281°
2026-05-07 04:14 52.08079 -4.36196 24558 ft 680 kts 281°
2026-05-07 04:14 52.09046 -4.43749 24849 ft 683 kts 281°
2026-05-07 04:14 52.10010 -4.51323 25149 ft 685 kts 281°
2026-05-07 04:14 52.10962 -4.58837 25442 ft 687 kts 280°
2026-05-07 04:15 52.11923 -4.66469 25749 ft 689 kts 280°
2026-05-07 04:15 52.12880 -4.74111 26045 ft 690 kts 280°
2026-05-07 04:15 52.13834 -4.81778 26349 ft 691 kts 280°
2026-05-07 04:15 52.14783 -4.89439 26704 ft 689 kts 280°
2026-05-07 04:16 52.15725 -4.97096 27076 ft 687 kts 280°
2026-05-07 04:16 52.16658 -5.04716 27426 ft 686 kts 280°
2026-05-07 04:16 52.17587 -5.12339 27727 ft 686 kts 279°
2026-05-07 04:16 52.18510 -5.19972 28005 ft 686 kts 279°
2026-05-07 04:17 52.19428 -5.27600 28288 ft 686 kts 279°
2026-05-07 04:17 52.20331 -5.35148 28570 ft 685 kts 279°
2026-05-07 04:17 52.21238 -5.42770 28856 ft 684 kts 279°
2026-05-07 04:17 52.22138 -5.50381 29122 ft 684 kts 279°
2026-05-07 04:18 52.23037 -5.58024 29368 ft 684 kts 279°
2026-05-07 04:18 52.23930 -5.65652 29603 ft 683 kts 279°
2026-05-07 04:18 52.24993 -5.73213 29821 ft 683 kts 287°
2026-05-07 04:18 52.26267 -5.80691 30050 ft 682 kts 289°
2026-05-07 04:19 52.27593 -5.88028 30194 ft 684 kts 289°
2026-05-07 04:19 52.30360 -6.02994 30328 ft 692 kts 289°
2026-05-07 04:19 52.31733 -6.10553 30447 ft 694 kts 289°
2026-05-07 04:20 52.33082 -6.18142 30634 ft 695 kts 288°
2026-05-07 04:20 52.34407 -6.25743 30873 ft 693 kts 288°
2026-05-07 04:20 52.35714 -6.33336 31119 ft 692 kts 288°
2026-05-07 04:21 52.38302 -6.48518 31439 ft 694 kts 287°
2026-05-07 04:21 52.39599 -6.56148 31479 ft 698 kts 287°
2026-05-07 04:21 52.42208 -6.71541 31592 ft 705 kts 287°
2026-05-07 04:22 52.44814 -6.87023 31684 ft 712 kts 287°
2026-05-07 04:22 52.47441 -7.02777 31780 ft 720 kts 287°
2026-05-07 04:23 52.50075 -7.18725 31891 ft 727 kts 286°
2026-05-07 04:23 52.52702 -7.34810 32333 ft 724 kts 286°
2026-05-07 04:24 52.53974 -7.42662 32797 ft 715 kts 286°
2026-05-07 04:24 52.55240 -7.50511 33233 ft 707 kts 286°
2026-05-07 04:24 52.56489 -7.58283 33636 ft 700 kts 286°
2026-05-07 04:24 52.57730 -7.66033 33693 ft 702 kts 286°
2026-05-07 04:25 52.58978 -7.73845 33483 ft 711 kts 286°
2026-05-07 04:25 52.60237 -7.81764 33320 ft 718 kts 285°
2026-05-07 04:25 52.62759 -7.97771 33366 ft 724 kts 285°
2026-05-07 04:26 52.65256 -8.13794 33438 ft 730 kts 285°
2026-05-07 04:26 52.67770 -8.30083 33531 ft 735 kts 285°
2026-05-07 04:27 52.70275 -8.46478 33654 ft 738 kts 285°
2026-05-07 04:27 52.72769 -8.62961 33737 ft 743 kts 284°
2026-05-07 04:28 52.74839 -8.76770 33820 ft 746 kts 284°
2026-05-07 04:28 52.76481 -8.87814 33956 ft 746 kts 284°
2026-05-07 04:28 52.77711 -8.96138 34005 ft 747 kts 284°
2026-05-07 04:29 52.79749 -9.10030 34002 ft 748 kts 284°
2026-05-07 04:29 52.82165 -9.26660 33965 ft 734 kts 283°
2026-05-07 04:30 52.84512 -9.42995 34002 ft 726 kts 283°
2026-05-07 04:30 52.86823 -9.59240 34012 ft 724 kts 283°
2026-05-07 04:31 52.89109 -9.75488 34003 ft 723 kts 283°
2026-05-07 04:31 52.91346 -9.91628 34000 ft 723 kts 293°
2026-05-07 04:32 52.92434 -9.99712 34047 ft 710 kts 297°
2026-05-07 04:32 52.93498 -10.07616 33973 ft 697 kts 297°
2026-05-07 04:32 52.95619 -10.23157 34000 ft 687 kts 298°
2026-05-07 04:33 52.97743 -10.38609 34002 ft 687 kts 298°
2026-05-07 04:33 52.99833 -10.54099 34010 ft 688 kts 297°
2026-05-07 04:34 53.01888 -10.69652 34014 ft 690 kts 297°
2026-05-07 04:34 53.03909 -10.85167 34014 ft 692 kts 297°
2026-05-07 04:35 53.05929 -11.00835 34013 ft 695 kts 296°
2026-05-07 04:35 53.07940 -11.16587 34015 ft 697 kts 296°
2026-05-07 04:36 53.09939 -11.32420 34012 ft 699 kts 296°
2026-05-07 04:36 53.11905 -11.48178 34007 ft 700 kts 296°
2026-05-07 04:37 53.13863 -11.64064 33999 ft 700 kts 295°
2026-05-07 04:37 53.15801 -11.79981 33999 ft 700 kts 295°
2026-05-07 04:38 53.17714 -11.95876 33997 ft 699 kts 295°
2026-05-07 04:38 53.19607 -12.11786 33996 ft 698 kts 295°
2026-05-07 04:39 53.21463 -12.27566 33996 ft 697 kts 295°
2026-05-07 04:39 53.23308 -12.43442 34000 ft 696 kts 295°
2026-05-07 04:40 53.25131 -12.59316 34004 ft 695 kts 294°
2026-05-07 04:40 53.26931 -12.75192 34007 ft 695 kts 294°
2026-05-07 04:41 53.28710 -12.91082 34008 ft 696 kts 294°
2026-05-07 04:41 53.30462 -13.06925 34008 ft 698 kts 294°
2026-05-07 04:42 53.32205 -13.22902 34010 ft 699 kts 294°
2026-05-07 04:42 53.33931 -13.38936 34009 ft 701 kts 293°
2026-05-07 04:43 53.35639 -13.55019 34009 ft 702 kts 293°
2026-05-07 04:43 53.37329 -13.71156 34005 ft 703 kts 293°
2026-05-07 04:44 53.38988 -13.87210 34004 ft 704 kts 292°
2026-05-07 04:44 53.40636 -14.03395 34004 ft 704 kts 292°
2026-05-07 04:45 53.42265 -14.19607 34000 ft 704 kts 292°
2026-05-07 04:45 53.43871 -14.35829 34002 ft 704 kts 292°
2026-05-07 04:46 53.45453 -14.52037 34002 ft 704 kts 292°
2026-05-07 04:46 53.47013 -14.68248 34003 ft 703 kts 291°
2026-05-07 04:47 53.48539 -14.84354 34003 ft 703 kts 291°
2026-05-07 04:47 53.50021 -15.00599 34000 ft 707 kts 287°
2026-05-07 04:48 53.50575 -15.17268 34018 ft 717 kts 278°
2026-05-07 04:48 53.50753 -15.34051 34003 ft 719 kts 278°
2026-05-07 04:49 53.50931 -15.50863 34007 ft 718 kts 278°
2026-05-07 04:49 53.51183 -15.67654 34007 ft 719 kts 279°
2026-05-07 04:50 53.51453 -15.84468 34007 ft 720 kts 278°
2026-05-07 04:50 53.51689 -16.01191 34007 ft 721 kts 278°
2026-05-07 04:51 53.51888 -16.18083 34006 ft 722 kts 278°
2026-05-07 04:51 53.52057 -16.34976 34005 ft 723 kts 278°
2026-05-07 04:52 53.52204 -16.51782 34003 ft 723 kts 277°
2026-05-07 04:52 53.52331 -16.68682 34003 ft 723 kts 277°
2026-05-07 04:53 53.52434 -16.85596 34002 ft 723 kts 277°
2026-05-07 04:53 53.52513 -17.02499 34002 ft 723 kts 277°
2026-05-07 04:54 53.52568 -17.19305 34003 ft 722 kts 277°
2026-05-07 04:54 53.52599 -17.36206 34003 ft 722 kts 276°
2026-05-07 04:55 53.52607 -17.53064 34003 ft 721 kts 276°